sat.trackr.live / text

‹ back to catalog

STARLINK-3750

NORAD 52311 · 2022-041BC

PAYLOAD ACTIVE UNKNOWN

§ Identity

Operator
Country
US
Launch date
2022-04-21
Launch site
AFETR
Launch vehicle
Mass (kg)
RCS (m²)

Purposes: comms

External: N2YO · Heavens-Above · Gunter

§ Orbital elements

Epoch: 2026-05-25T03:16:27.086304Z

Period
95.44 min
Inclination
53.2133°
Eccentricity
0.0001467
Mean motion
15.08844464 rev/d
Perigee alt
538.7 km
Apogee alt
540.7 km
Semi-major
6,917.9 km
B*
2.4669e-4
RAAN
105.9357°
Arg perigee
77.1279°
Mean anomaly
282.9877°
Rev number
22,740

§ Raw data

STARLINK-37501 52311U 22041BC  26145.13642461  .00003641  00000+0  24669-3 0  99992 52311  53.2133 105.9357 0001467  77.1279 282.9877 15.08844464227404

JSON: /api/v1/satellites/52311 · /tle

For live sub-satellite position, see the globe view (requires WebGL).

§ Visibility from observer

Set your observer location to see the next 7 days of passes ≥ 10°. The values pass through the URL so the page stays shareable.

No JS? Fill the form by hand. The geolocation button needs JavaScript.